Location: Unspecified
(34.2620°N, 0.0000°E)
Time: 02:09:27
(UTC+00:00)

OTV 5 (USA 277) - Visible Passes

Search period start: 25 May 2019 00:00
Search period end: 04 June 2019 00:00
Orbit: 310 x 325 km, 54.5° (Epoch: 08 May)

Date Brightness Start Highest point End Pass type
(mag) Time Alt. Az. Time Alt. Az. Time Alt. Az.
01 Jun ? 03:46:12 10° SSE 03:47:36 13° SE 03:49:00 10° E visible
02 Jun ? 03:59:42 11° SSW 04:02:09 43° SE 04:04:47 10° NE visible
03 Jun ? 04:14:12 10° WSW 04:16:52 45° NW 04:19:31 10° NNE visible
